Time,TemperatureF,DewpointF,PressureIn,WindDirection,WindDirectionDegrees,WindSpeedMPH,WindSpeedGustMPH,Humidity,HourlyPrecipIn,Conditions,Clouds,dailyrainin,SoftwareType,DateUTC
2013-07-30 00:04:00,70.0,64.6,30.11,East,86,0.0,0.0,83,0.00,,CLR,0.00,VWS V14.01,2013-07-30 05:04:00,
2013-07-30 00:09:00,70.0,64.6,30.11,East,86,0.0,1.0,83,0.00,,CLR,0.00,VWS V14.01,2013-07-30 05:09:00,
2013-07-30 00:14:00,70.0,64.6,30.11,SE,140,0.0,1.0,83,0.00,,CLR,0.00,VWS V14.01,2013-07-30 05:14:00,
2013-07-30 00:19:00,70.0,64.6,30.10,SE,140,0.0,1.0,83,0.00,,CLR,0.00,VWS V14.01,2013-07-30 05:19:00,
2013-07-30 00:24:00,70.0,64.6,30.11,SE,140,0.0,0.0,83,0.00,,CLR,0.00,VWS V14.01,2013-07-30 05:24:00,
2013-07-30 00:29:00,70.0,64.6,30.11,SE,142,0.0,2.0,83,0.00,,CLR,0.00,VWS V14.01,2013-07-30 05:29:00,
2013-07-30 00:34:00,70.0,64.6,30.11,SE,142,0.0,0.0,83,0.00,,CLR,0.00,VWS V14.01,2013-07-30 05:34:00,
2013-07-30 00:39:00,69.9,64.5,30.11,SE,142,0.0,1.0,83,0.00,,CLR,0.00,VWS V14.01,2013-07-30 05:39:00,
2013-07-30 00:44:00,69.8,64.4,30.11,SE,142,0.0,0.0,83,0.00,,CLR,0.00,VWS V14.01,2013-07-30 05:44:00,
2013-07-30 00:49:00,69.8,64.4,30.11,SE,142,0.0,0.0,83,0.00,,CLR,0.00,VWS V14.01,2013-07-30 05:49:00,
2013-07-30 00:54:00,69.7,64.3,30.12,SE,142,0.0,0.0,83,0.00,,CLR,0.00,VWS V14.01,2013-07-30 05:54:00,
2013-07-30 00:59:00,69.7,64.3,30.13,SE,142,0.0,0.0,83,0.00,,CLR,0.00,VWS V14.01,2013-07-30 05:59:00,
2013-07-30 01:04:00,69.6,64.2,30.13,SE,142,0.0,0.0,83,0.00,,CLR,0.00,VWS V14.01,2013-07-30 06:04:00,
2013-07-30 01:09:00,69.5,64.1,30.12,SE,142,0.0,0.0,83,0.00,,CLR,0.00,VWS V14.01,2013-07-30 06:09:00,
2013-07-30 01:14:00,69.4,64.0,30.12,SE,142,0.0,0.0,83,0.00,,CLR,0.00,VWS V14.01,2013-07-30 06:14:00,
2013-07-30 01:19:00,69.2,63.8,30.12,SE,142,0.0,0.0,83,0.00,,CLR,0.00,VWS V14.01,2013-07-30 06:19:00,
2013-07-30 01:24:00,69.1,64.1,30.12,SE,142,0.0,0.0,84,0.00,,CLR,0.00,VWS V14.01,2013-07-30 06:24:00,
2013-07-30 01:29:00,69.0,64.0,30.12,SE,142,0.0,0.0,84,0.00,,CLR,0.00,VWS V14.01,2013-07-30 06:29:00,
2013-07-30 01:34:00,68.9,63.9,30.11,SE,142,0.0,0.0,84,0.00,,CLR,0.00,VWS V14.01,2013-07-30 06:34:00,
2013-07-30 01:39:00,68.8,63.8,30.11,SE,142,0.0,0.0,84,0.00,,CLR,0.00,VWS V14.01,2013-07-30 06:39:00,
2013-07-30 01:44:00,68.8,63.8,30.11,SE,142,0.0,0.0,84,0.00,,CLR,0.00,VWS V14.01,2013-07-30 06:44:00,
2013-07-30 01:49:00,68.7,63.7,30.11,SE,142,0.0,1.0,84,0.00,,CLR,0.00,VWS V14.01,2013-07-30 06:49:00,
2013-07-30 01:54:00,68.6,63.6,30.11,SE,142,0.0,0.0,84,0.00,,CLR,0.00,VWS V14.01,2013-07-30 06:54:00,
2013-07-30 01:59:00,68.6,63.6,30.11,SE,142,0.0,0.0,84,0.00,,CLR,0.00,VWS V14.01,2013-07-30 06:59:00,
2013-07-30 02:04:00,68.5,63.5,30.11,SE,142,0.0,1.0,84,0.00,,CLR,0.00,VWS V14.01,2013-07-30 07:04:00,
2013-07-30 02:09:00,68.5,63.5,30.11,SE,142,0.0,1.0,84,0.00,,CLR,0.00,VWS V14.01,2013-07-30 07:09:00,
2013-07-30 02:14:00,68.4,63.4,30.11,SE,142,0.0,0.0,84,0.00,,CLR,0.00,VWS V14.01,2013-07-30 07:14:00,
2013-07-30 02:19:00,68.4,63.4,30.12,SE,142,0.0,0.0,84,0.00,,CLR,0.00,VWS V14.01,2013-07-30 07:19:00,
2013-07-30 02:24:00,68.3,63.3,30.11,SE,142,0.0,0.0,84,0.00,,CLR,0.00,VWS V14.01,2013-07-30 07:24:00,
2013-07-30 02:29:00,68.2,63.2,30.11,SE,142,0.0,0.0,84,0.00,,CLR,0.00,VWS V14.01,2013-07-30 07:29:00,
2013-07-30 02:34:00,68.1,63.1,30.10,SE,142,0.0,1.0,84,0.00,,CLR,0.00,VWS V14.01,2013-07-30 07:34:00,
2013-07-30 02:39:00,68.1,63.1,30.10,SE,142,0.0,1.0,84,0.00,,CLR,0.00,VWS V14.01,2013-07-30 07:39:00,
2013-07-30 02:44:00,68.0,63.0,30.10,SE,142,0.0,0.0,84,0.00,,CLR,0.00,VWS V14.01,2013-07-30 07:44:00,
2013-07-30 02:49:00,68.0,63.0,30.10,SE,142,0.0,1.0,84,0.00,,CLR,0.00,VWS V14.01,2013-07-30 07:49:00,
2013-07-30 02:54:00,68.0,63.3,30.11,SE,142,0.0,0.0,85,0.00,,CLR,0.00,VWS V14.01,2013-07-30 07:54:00,
2013-07-30 02:59:00,68.0,63.3,30.10,SE,142,0.0,1.0,85,0.00,,CLR,0.00,VWS V14.01,2013-07-30 07:59:00,
2013-07-30 03:04:00,68.0,63.0,30.10,SE,141,0.0,1.0,84,0.00,,CLR,0.00,VWS V14.01,2013-07-30 08:04:00,
2013-07-30 03:09:00,68.0,63.0,30.10,SE,141,0.0,1.0,84,0.00,,CLR,0.00,VWS V14.01,2013-07-30 08:09:00,
2013-07-30 03:14:00,68.0,63.0,30.11,SE,141,0.0,0.0,84,0.00,,CLR,0.00,VWS V14.01,2013-07-30 08:14:00,
2013-07-30 03:19:00,68.0,63.0,30.11,SE,141,0.0,0.0,84,0.00,,CLR,0.00,VWS V14.01,2013-07-30 08:19:00,
2013-07-30 03:24:00,67.9,62.9,30.11,SE,141,0.0,0.0,84,0.00,,CLR,0.00,VWS V14.01,2013-07-30 08:24:00,
2013-07-30 03:29:00,67.9,62.9,30.11,SE,141,0.0,0.0,84,0.00,,CLR,0.00,VWS V14.01,2013-07-30 08:29:00,
2013-07-30 03:34:00,67.9,62.9,30.11,SE,141,0.0,0.0,84,0.00,,CLR,0.00,VWS V14.01,2013-07-30 08:34:00,
2013-07-30 03:39:00,67.9,62.9,30.10,SE,141,0.0,0.0,84,0.00,,CLR,0.00,VWS V14.01,2013-07-30 08:39:00,
2013-07-30 03:44:00,68.0,63.0,30.10,SE,141,0.0,0.0,84,0.00,,CLR,0.00,VWS V14.01,2013-07-30 08:44:00,
2013-07-30 03:49:00,68.0,63.0,30.10,SE,141,0.0,0.0,84,0.00,,CLR,0.00,VWS V14.01,2013-07-30 08:49:00,
2013-07-30 03:54:00,68.0,63.0,30.10,SE,141,0.0,0.0,84,0.00,,CLR,0.00,VWS V14.01,2013-07-30 08:54:00,
2013-07-30 03:59:00,68.0,63.0,30.10,SE,141,0.0,1.0,84,0.00,,CLR,0.00,VWS V14.01,2013-07-30 08:59:00,
2013-07-30 04:04:00,68.0,63.0,30.10,SE,130,0.0,1.0,84,0.00,,CLR,0.00,VWS V14.01,2013-07-30 09:04:00,
2013-07-30 04:09:00,68.1,63.1,30.10,SE,130,0.0,1.0,84,0.00,,CLR,0.00,VWS V14.01,2013-07-30 09:09:00,
2013-07-30 04:14:00,68.1,62.8,30.10,SE,130,0.0,1.0,83,0.00,,CLR,0.00,VWS V14.01,2013-07-30 09:14:00,
2013-07-30 04:19:00,68.2,62.8,30.10,SE,130,0.0,1.0,83,0.00,,CLR,0.00,VWS V14.01,2013-07-30 09:19:00,
2013-07-30 04:24:00,68.2,62.8,30.10,SE,130,0.0,0.0,83,0.00,,CLR,0.00,VWS V14.01,2013-07-30 09:24:00,
2013-07-30 04:29:00,68.3,62.9,30.10,SE,130,0.0,1.0,83,0.00,,CLR,0.00,VWS V14.01,2013-07-30 09:29:00,
2013-07-30 04:34:00,68.4,63.0,30.09,SE,130,0.0,1.0,83,0.00,,CLR,0.00,VWS V14.01,2013-07-30 09:34:00,
2013-07-30 04:44:00,68.4,63.0,30.09,SE,130,0.0,0.0,83,0.00,,CLR,0.00,VWS V14.01,2013-07-30 09:44:00,
2013-07-30 04:49:00,68.4,63.0,30.08,SE,130,0.0,1.0,83,0.00,,CLR,0.00,VWS V14.01,2013-07-30 09:49:00,
2013-07-30 04:54:00,68.3,62.9,30.08,SE,124,1.0,2.0,83,0.00,,CLR,0.00,VWS V14.01,2013-07-30 09:54:00,
2013-07-30 04:59:00,68.3,62.9,30.08,ESE,120,0.0,2.0,83,0.00,,CLR,0.00,VWS V14.01,2013-07-30 09:59:00,
2013-07-30 05:04:00,68.3,62.9,30.08,ESE,123,0.0,0.0,83,0.00,,CLR,0.00,VWS V14.01,2013-07-30 10:04:00,
2013-07-30 05:09:00,68.2,62.8,30.08,East,84,0.0,3.0,83,0.00,,CLR,0.00,VWS V14.01,2013-07-30 10:09:00,
2013-07-30 05:14:00,68.2,62.8,30.08,East,95,0.0,1.0,83,0.00,,CLR,0.00,VWS V14.01,2013-07-30 10:14:00,
2013-07-30 05:19:00,68.2,62.8,30.08,East,92,0.0,6.0,83,0.00,,CLR,0.00,VWS V14.01,2013-07-30 10:19:00,
2013-07-30 05:24:00,68.2,62.8,30.08,ESE,108,0.0,5.0,83,0.00,,CLR,0.00,VWS V14.01,2013-07-30 10:24:00,
2013-07-30 05:29:00,68.3,62.9,30.08,ESE,112,0.0,5.0,83,0.00,,CLR,0.00,VWS V14.01,2013-07-30 10:29:00,
2013-07-30 05:34:00,68.4,63.0,30.08,ESE,121,0.0,5.0,83,0.00,,CLR,0.00,VWS V14.01,2013-07-30 10:34:00,
2013-07-30 05:39:00,68.5,63.1,30.08,SE,126,0.0,5.0,83,0.00,,CLR,0.00,VWS V14.01,2013-07-30 10:39:00,
2013-07-30 05:44:00,68.6,63.2,30.08,SE,126,0.0,1.0,83,0.00,,CLR,0.00,VWS V14.01,2013-07-30 10:44:00,
2013-07-30 05:49:00,68.6,63.2,30.08,ESE,103,0.0,8.0,83,0.00,,CLR,0.00,VWS V14.01,2013-07-30 10:49:00,
2013-07-30 05:54:00,68.7,63.3,30.08,ESE,109,0.0,2.0,83,0.00,,CLR,0.00,VWS V14.01,2013-07-30 10:54:00,
2013-07-30 05:59:00,68.7,63.3,30.08,SE,128,0.0,2.0,83,0.00,,CLR,0.00,VWS V14.01,2013-07-30 10:59:00,
2013-07-30 06:04:00,68.7,63.3,30.08,SE,124,0.0,1.0,83,0.00,,CLR,0.00,VWS V14.01,2013-07-30 11:04:00,
2013-07-30 06:09:00,68.8,63.4,30.08,East,92,0.0,5.0,83,0.00,,CLR,0.00,VWS V14.01,2013-07-30 11:09:00,
2013-07-30 06:14:00,68.8,63.4,30.08,East,98,0.0,1.0,83,0.00,,CLR,0.00,VWS V14.01,2013-07-30 11:14:00,
2013-07-30 06:19:00,68.9,63.5,30.08,East,84,0.0,6.0,83,0.00,,CLR,0.00,VWS V14.01,2013-07-30 11:19:00,
2013-07-30 06:24:00,68.9,63.5,30.08,ESE,123,0.0,2.0,83,0.00,,CLR,0.00,VWS V14.01,2013-07-30 11:24:00,
2013-07-30 06:29:00,68.9,63.5,30.08,ESE,119,0.0,5.0,83,0.00,,CLR,0.00,VWS V14.01,2013-07-30 11:29:00,
2013-07-30 06:34:00,69.0,63.6,30.08,ESE,121,1.0,2.0,83,0.00,,CLR,0.00,VWS V14.01,2013-07-30 11:34:00,
2013-07-30 06:39:00,69.0,63.6,30.08,ESE,103,0.0,2.0,83,0.00,,CLR,0.00,VWS V14.01,2013-07-30 11:39:00,
2013-07-30 06:44:00,69.1,63.4,30.08,SE,137,0.0,2.0,82,0.00,,CLR,0.00,VWS V14.01,2013-07-30 11:44:00,
2013-07-30 06:49:00,69.1,63.4,30.08,SE,138,1.0,2.0,82,0.00,,CLR,0.00,VWS V14.01,2013-07-30 11:49:00,
2013-07-30 06:54:00,69.3,63.6,30.08,South,179,0.0,7.0,82,0.00,,CLR,0.00,VWS V14.01,2013-07-30 11:54:00,
2013-07-30 06:59:00,69.4,63.3,30.08,South,171,1.0,7.0,81,0.00,,CLR,0.00,VWS V14.01,2013-07-30 11:59:00,
2013-07-30 07:04:00,69.6,63.5,30.08,SE,142,0.0,2.0,81,0.00,,CLR,0.00,VWS V14.01,2013-07-30 12:04:00,
2013-07-30 07:09:00,69.8,63.7,30.08,SE,140,1.0,5.0,81,0.00,,CLR,0.00,VWS V14.01,2013-07-30 12:09:00,
2013-07-30 07:11:00,69.8,63.4,30.08,SSE,154,0.0,6.0,80,0.00,,CLR,0.00,VWS V14.01,2013-07-30 12:11:00,
2013-07-30 07:19:00,70.1,63.7,30.08,SE,138,0.0,6.0,80,0.00,,CLR,0.00,VWS V14.01,2013-07-30 12:19:00,
2013-07-30 07:24:00,70.2,63.8,30.08,SE,124,2.0,5.0,80,0.00,,CLR,0.00,VWS V14.01,2013-07-30 12:24:00,
2013-07-30 07:29:00,70.3,63.8,30.08,SSE,168,0.0,5.0,80,0.00,,CLR,0.00,VWS V14.01,2013-07-30 12:29:00,
2013-07-30 07:34:00,70.4,63.9,30.08,SSE,157,0.0,4.0,80,0.00,,CLR,0.00,VWS V14.01,2013-07-30 12:34:00,
2013-07-30 07:39:00,70.4,63.6,30.08,SE,142,0.0,6.0,79,0.00,,CLR,0.00,VWS V14.01,2013-07-30 12:39:00,
2013-07-30 07:44:00,70.5,63.7,30.08,ESE,115,0.0,6.0,79,0.00,,CLR,0.00,VWS V14.01,2013-07-30 12:44:00,
2013-07-30 07:50:00,70.6,63.8,30.08,SSE,156,0.0,6.0,79,0.00,,CLR,0.00,VWS V14.01,2013-07-30 12:50:00,
2013-07-30 07:55:00,70.7,63.9,30.09,South,169,0.0,6.0,79,0.00,,CLR,0.00,VWS V14.01,2013-07-30 12:55:00,
2013-07-30 08:00:00,70.6,63.8,30.08,SE,146,5.0,9.0,79,0.00,,CLR,0.00,VWS V14.01,2013-07-30 13:00:00,
2013-07-30 08:05:00,70.3,64.2,30.09,SSW,211,1.0,6.0,81,0.07,,CLR,0.07,VWS V14.01,2013-07-30 13:05:00,
2013-07-30 08:10:00,69.0,63.6,30.10,SSW,194,0.0,11.0,83,0.15,,CLR,0.15,VWS V14.01,2013-07-30 13:10:00,
2013-07-30 08:15:00,68.0,63.0,30.10,SSW,193,2.0,4.0,84,0.18,,CLR,0.18,VWS V14.01,2013-07-30 13:15:00,
2013-07-30 08:20:00,67.7,63.0,30.10,South,190,0.0,4.0,85,0.19,,CLR,0.19,VWS V14.01,2013-07-30 13:20:00,
2013-07-30 08:25:00,67.4,62.7,30.10,South,191,0.0,1.0,85,0.19,,CLR,0.19,VWS V14.01,2013-07-30 13:25:00,
2013-07-30 08:30:00,67.2,62.5,30.10,SSW,192,0.0,1.0,85,0.22,,CLR,0.22,VWS V14.01,2013-07-30 13:30:00,
2013-07-30 08:35:00,67.1,62.5,30.10,South,190,0.0,2.0,85,0.24,,CLR,0.24,VWS V14.01,2013-07-30 13:35:00,
2013-07-30 08:40:00,66.9,61.9,30.10,South,190,0.0,2.0,84,0.27,,CLR,0.27,VWS V14.01,2013-07-30 13:40:00,
2013-07-30 08:45:00,66.8,61.8,30.11,South,190,0.0,0.0,84,0.32,, +RA,0.32,VWS V14.01,2013-07-30 13:45:00,
2013-07-30 08:50:00,66.7,61.7,30.11,South,190,0.0,0.0,84,0.36,, +RA,0.36,VWS V14.01,2013-07-30 13:50:00,
2013-07-30 08:55:00,66.5,61.5,30.11,South,190,0.0,1.0,84,0.39,, +RA,0.39,VWS V14.01,2013-07-30 13:55:00,
2013-07-30 09:00:00,66.4,61.4,30.11,South,190,0.0,1.0,84,0.42,, +RA,0.42,VWS V14.01,2013-07-30 14:00:00,
2013-07-30 09:05:00,66.4,61.4,30.10,South,190,0.0,0.0,84,0.50,, +RA,0.50,VWS V14.01,2013-07-30 14:05:00,
2013-07-30 09:10:00,66.3,61.0,30.10,South,190,0.0,1.0,83,0.54,, +RA,0.54,VWS V14.01,2013-07-30 14:10:00,
2013-07-30 09:15:00,66.2,60.9,30.10,NE,55,0.0,1.0,83,0.41,, +RA,0.58,VWS V14.01,2013-07-30 14:15:00,
2013-07-30 09:20:00,66.2,60.9,30.10,East,80,0.0,1.0,83,0.43,, +RA,0.60,VWS V14.01,2013-07-30 14:20:00,
2013-07-30 09:25:00,66.1,60.8,30.10,ESE,104,0.0,1.0,83,0.48,, +RA,0.67,VWS V14.01,2013-07-30 14:25:00,
2013-07-30 09:30:00,66.1,60.8,30.10,ESE,111,0.0,4.0,83,0.48,, +RA,0.67,VWS V14.01,2013-07-30 14:30:00,
2013-07-30 09:35:00,65.9,60.6,30.09,ENE,75,0.0,3.0,83,0.46,, +RA,0.68,VWS V14.01,2013-07-30 14:35:00,
2013-07-30 09:41:00,65.9,60.6,30.09,ENE,77,0.0,3.0,83,0.47,,RA,0.69,VWS V14.01,2013-07-30 14:41:00,
2013-07-30 09:50:00,66.1,60.8,30.09,ESE,123,1.0,5.0,83,0.40,,RA,0.69,VWS V14.01,2013-07-30 14:50:00,
2013-07-30 09:55:00,66.3,61.0,30.09,ESE,122,0.0,4.0,83,0.32,,-RA,0.69,VWS V14.01,2013-07-30 14:55:00,
2013-07-30 10:00:00,66.5,61.2,30.09,ESE,122,0.0,4.0,83,0.32,,-RA,0.69,VWS V14.01,2013-07-30 15:00:00,
2013-07-30 10:05:00,66.7,61.4,30.09,ESE,113,0.0,2.0,83,0.23,,-RA,0.69,VWS V14.01,2013-07-30 15:05:00,
2013-07-30 10:10:00,66.8,61.5,30.09,ENE,65,0.0,7.0,83,0.23,,-RA,0.69,VWS V14.01,2013-07-30 15:10:00,
2013-07-30 10:15:00,66.7,61.4,30.09,ESE,118,0.0,6.0,83,0.11,,-RA,0.69,VWS V14.01,2013-07-30 15:15:00,
2013-07-30 10:20:00,66.8,61.5,30.09,East,88,0.0,6.0,83,0.11,,-RA,0.69,VWS V14.01,2013-07-30 15:20:00,
2013-07-30 10:25:00,66.9,61.6,30.09,ESE,107,0.0,4.0,83,0.07,,-RA,0.69,VWS V14.01,2013-07-30 15:25:00,
2013-07-30 10:30:00,67.0,61.7,30.09,ESE,111,1.0,4.0,83,0.07,,-RA,0.69,VWS V14.01,2013-07-30 15:30:00,
2013-07-30 10:35:00,67.0,61.7,30.09,SE,132,0.0,5.0,83,0.02,,-RA,0.69,VWS V14.01,2013-07-30 15:35:00,
2013-07-30 10:40:00,67.1,61.8,30.09,ESE,118,0.0,5.0,83,0.02,,-RA,0.69,VWS V14.01,2013-07-30 15:40:00,
2013-07-30 10:45:00,67.0,61.7,30.09,ESE,103,0.0,0.0,83,0.01,,CLR,0.70,VWS V14.01,2013-07-30 15:45:00,
2013-07-30 10:50:00,67.1,61.8,30.09,ESE,117,0.0,4.0,83,0.03,,CLR,0.72,VWS V14.01,2013-07-30 15:50:00,
2013-07-30 10:55:00,67.0,61.7,30.09,SE,133,0.0,4.0,83,0.04,,-RA,0.73,VWS V14.01,2013-07-30 15:55:00,
2013-07-30 11:00:00,67.1,61.8,30.09,SE,136,0.0,4.0,83,0.04,,-RA,0.73,VWS V14.01,2013-07-30 16:00:00,
2013-07-30 11:05:00,67.0,61.7,30.09,SE,124,0.0,4.0,83,0.05,,-RA,0.74,VWS V14.01,2013-07-30 16:05:00,
2013-07-30 11:10:00,67.0,61.7,30.09,SSE,155,0.0,4.0,83,0.05,,-RA,0.74,VWS V14.01,2013-07-30 16:10:00,
2013-07-30 11:15:00,67.1,61.8,30.09,SSE,158,0.0,5.0,83,0.05,,-RA,0.74,VWS V14.01,2013-07-30 16:15:00,
2013-07-30 11:20:00,67.2,61.9,30.09,SSE,159,0.0,5.0,83,0.05,,-RA,0.74,VWS V14.01,2013-07-30 16:20:00,
2013-07-30 11:25:00,67.3,62.0,30.09,East,101,0.0,4.0,83,0.05,,-RA,0.74,VWS V14.01,2013-07-30 16:25:00,
2013-07-30 11:30:00,67.4,62.1,30.09,SE,125,0.0,5.0,83,0.05,,-RA,0.74,VWS V14.01,2013-07-30 16:30:00,
2013-07-30 11:35:00,67.4,62.1,30.09,SE,126,0.0,2.0,83,0.05,,-RA,0.74,VWS V14.01,2013-07-30 16:35:00,
2013-07-30 11:40:00,67.5,62.2,30.09,SE,126,0.0,4.0,83,0.05,,-RA,0.74,VWS V14.01,2013-07-30 16:40:00,
2013-07-30 11:45:00,67.6,62.3,30.09,ESE,109,1.0,4.0,83,0.05,,-RA,0.74,VWS V14.01,2013-07-30 16:45:00,
2013-07-30 11:50:00,67.6,62.3,30.09,ESE,117,0.0,4.0,83,0.05,,-RA,0.74,VWS V14.01,2013-07-30 16:50:00,
2013-07-30 11:55:00,67.8,62.5,30.09,SE,142,0.0,5.0,83,0.02,,-RA,0.74,VWS V14.01,2013-07-30 16:55:00,
2013-07-30 12:00:00,67.9,62.5,30.09,ESE,117,0.0,5.0,83,0.02,,-RA,0.74,VWS V14.01,2013-07-30 17:00:00,
2013-07-30 12:05:00,67.9,62.5,30.09,South,178,0.0,2.0,83,0.01,,-RA,0.74,VWS V14.01,2013-07-30 17:05:00,
2013-07-30 12:10:00,67.9,62.5,30.09,SSE,148,0.0,5.0,83,0.01,,-RA,0.74,VWS V14.01,2013-07-30 17:10:00,
2013-07-30 12:15:00,67.9,62.5,30.09,SSE,148,0.0,1.0,83,0.00,,-RA,0.74,VWS V14.01,2013-07-30 17:15:00,
2013-07-30 12:20:00,67.8,62.5,30.09,SSE,147,0.0,2.0,83,0.01,,-RA,0.75,VWS V14.01,2013-07-30 17:20:00,
2013-07-30 12:25:00,67.8,62.5,30.09,SE,136,0.0,4.0,83,0.01,,-RA,0.75,VWS V14.01,2013-07-30 17:25:00,
2013-07-30 12:30:00,67.9,62.5,30.08,SE,139,0.0,4.0,83,0.01,,-RA,0.75,VWS V14.01,2013-07-30 17:30:00,
2013-07-30 12:35:00,68.0,62.7,30.08,SE,140,0.0,4.0,83,0.01,,-RA,0.75,VWS V14.01,2013-07-30 17:35:00,
2013-07-30 12:40:00,68.1,62.8,30.08,East,89,2.0,6.0,83,0.01,,-RA,0.75,VWS V14.01,2013-07-30 17:40:00,
2013-07-30 12:45:00,68.0,62.7,30.08,SSE,165,0.0,3.0,83,0.02,,RA,0.76,VWS V14.01,2013-07-30 17:45:00,
2013-07-30 12:50:00,68.1,62.8,30.08,SSE,165,0.0,3.0,83,0.02,,RA,0.76,VWS V14.01,2013-07-30 17:50:00,
2013-07-30 12:55:00,68.2,62.8,30.07,SE,144,0.0,1.0,83,0.02,,-RA,0.76,VWS V14.01,2013-07-30 17:55:00,
2013-07-30 13:00:00,68.3,62.9,30.07,SE,138,0.0,5.0,83,0.02,,-RA,0.76,VWS V14.01,2013-07-30 18:00:00,
2013-07-30 13:05:00,68.3,62.9,30.07,SE,132,6.0,6.0,83,0.02,,-RA,0.76,VWS V14.01,2013-07-30 18:05:00,
2013-07-30 13:10:00,68.3,62.9,30.06,SSE,150,0.0,6.0,83,0.03,,-RA,0.77,VWS V14.01,2013-07-30 18:10:00,
2013-07-30 13:15:00,68.3,62.9,30.06,SSE,151,0.0,6.0,83,0.03,,-RA,0.77,VWS V14.01,2013-07-30 18:15:00,
2013-07-30 13:20:00,68.4,63.0,30.06,ESE,118,0.0,6.0,83,0.03,,-RA,0.77,VWS V14.01,2013-07-30 18:20:00,
2013-07-30 13:25:00,68.6,63.2,30.06,SE,146,0.0,5.0,83,0.03,,-RA,0.78,VWS V14.01,2013-07-30 18:25:00,
2013-07-30 13:30:00,68.9,63.5,30.06,SSE,157,0.0,5.0,83,0.03,,-RA,0.78,VWS V14.01,2013-07-30 18:30:00,
2013-07-30 13:35:00,68.9,63.5,30.05,SSE,165,0.0,2.0,83,0.03,,-RA,0.78,VWS V14.01,2013-07-30 18:35:00,
2013-07-30 13:40:00,68.9,63.5,30.05,East,88,0.0,7.0,83,0.03,,-RA,0.78,VWS V14.01,2013-07-30 18:40:00,
2013-07-30 13:45:00,69.0,63.6,30.05,South,178,0.0,8.0,83,0.03,,-RA,0.78,VWS V14.01,2013-07-30 18:45:00,
2013-07-30 13:50:00,69.0,63.6,30.05,ESE,107,0.0,8.0,83,0.03,,-RA,0.78,VWS V14.01,2013-07-30 18:50:00,
2013-07-30 13:55:00,69.0,63.6,30.05,SSE,151,4.0,4.0,83,0.02,,-RA,0.78,VWS V14.01,2013-07-30 18:55:00,
2013-07-30 14:00:00,69.1,63.7,30.04,East,93,0.0,4.0,83,0.02,,-RA,0.78,VWS V14.01,2013-07-30 19:00:00,
2013-07-30 14:05:00,69.1,63.7,30.04,SE,134,2.0,5.0,83,0.02,,-RA,0.78,VWS V14.01,2013-07-30 19:05:00,
2013-07-30 14:10:00,69.0,63.6,30.04,SE,133,0.0,7.0,83,0.03,,-RA,0.79,VWS V14.01,2013-07-30 19:10:00,
2013-07-30 14:15:00,69.2,63.8,30.04,SE,127,0.0,6.0,83,0.02,,-RA,0.79,VWS V14.01,2013-07-30 19:15:00,
2013-07-30 14:20:00,69.1,63.7,30.04,SE,134,4.0,12.0,83,0.02,,-RA,0.79,VWS V14.01,2013-07-30 19:20:00,
2013-07-30 14:25:00,69.1,63.7,30.04,SE,142,0.0,8.0,83,0.01,,-RA,0.79,VWS V14.01,2013-07-30 19:25:00,
2013-07-30 14:30:00,69.2,63.8,30.04,South,182,0.0,9.0,83,0.01,,-RA,0.79,VWS V14.01,2013-07-30 19:30:00,
2013-07-30 14:35:00,69.3,63.9,30.03,SE,128,1.0,6.0,83,0.01,,-RA,0.79,VWS V14.01,2013-07-30 19:35:00,
2013-07-30 14:40:00,69.4,64.0,30.03,SE,143,5.0,7.0,83,0.01,,-RA,0.79,VWS V14.01,2013-07-30 19:40:00,
2013-07-30 14:45:00,69.5,64.1,30.03,SSW,206,0.0,8.0,83,0.01,,-RA,0.79,VWS V14.01,2013-07-30 19:45:00,
2013-07-30 14:50:00,69.6,64.2,30.03,SE,128,2.0,8.0,83,0.01,,-RA,0.79,VWS V14.01,2013-07-30 19:50:00,
2013-07-30 14:55:00,69.7,64.3,30.03,SE,146,0.0,5.0,83,0.01,,-RA,0.79,VWS V14.01,2013-07-30 19:55:00,
2013-07-30 15:01:00,69.8,64.4,30.03,SSE,153,0.0,5.0,83,0.01,,-RA,0.79,VWS V14.01,2013-07-30 20:01:00,
2013-07-30 15:06:00,70.0,64.6,30.02,SSW,194,0.0,5.0,83,0.01,,-RA,0.79,VWS V14.01,2013-07-30 20:06:00,
2013-07-30 15:11:00,69.9,64.5,30.02,SE,142,0.0,7.0,83,0.01,,-RA,0.79,VWS V14.01,2013-07-30 20:11:00,
2013-07-30 15:16:00,70.0,64.6,30.02,South,169,0.0,6.0,83,0.00,,-RA,0.79,VWS V14.01,2013-07-30 20:16:00,
2013-07-30 15:21:00,70.0,64.6,30.02,East,96,2.0,6.0,83,0.00,,-RA,0.79,VWS V14.01,2013-07-30 20:21:00,
2013-07-30 15:26:00,70.0,64.6,30.02,SSE,162,0.0,8.0,83,0.00,,-RA,0.79,VWS V14.01,2013-07-30 20:26:00,
2013-07-30 15:31:00,70.1,64.7,30.02,SSW,208,3.0,8.0,83,0.00,,-RA,0.79,VWS V14.01,2013-07-30 20:31:00,
2013-07-30 15:36:00,70.0,64.6,30.02,SSE,148,0.0,6.0,83,0.00,,-RA,0.79,VWS V14.01,2013-07-30 20:36:00,
2013-07-30 15:41:00,69.9,64.5,30.02,SE,143,7.0,7.0,83,0.00,,CLR,0.79,VWS V14.01,2013-07-30 20:41:00,
2013-07-30 15:46:00,69.9,64.5,30.02,SE,131,0.0,5.0,83,0.00,,CLR,0.79,VWS V14.01,2013-07-30 20:46:00,
2013-07-30 15:51:00,70.0,64.6,30.02,SSW,203,0.0,5.0,83,0.00,,SCT005,0.79,VWS V14.01,2013-07-30 20:51:00,
2013-07-30 15:56:00,70.0,64.6,30.02,SSE,153,2.0,6.0,83,0.00,,SCT005,0.79,VWS V14.01,2013-07-30 20:56:00,
2013-07-30 16:01:00,70.1,64.7,30.02,SE,143,0.0,6.0,83,0.00,,SCT005,0.79,VWS V14.01,2013-07-30 21:01:00,
2013-07-30 16:06:00,70.1,64.7,30.02,ESE,111,0.0,2.0,83,0.00,,SCT005,0.79,VWS V14.01,2013-07-30 21:06:00,
2013-07-30 16:11:00,70.1,64.7,30.01,SW,219,0.0,7.0,83,0.00,,SCT005,0.79,VWS V14.01,2013-07-30 21:11:00,
2013-07-30 16:16:00,70.2,64.8,30.01,SE,137,1.0,6.0,83,0.00,,SCT005,0.79,VWS V14.01,2013-07-30 21:16:00,
2013-07-30 16:21:00,70.3,64.9,30.01,SSE,151,0.0,6.0,83,0.00,,SCT005,0.79,VWS V14.01,2013-07-30 21:21:00,
2013-07-30 16:26:00,70.2,64.8,30.01,SE,131,4.0,7.0,83,0.00,,SCT005,0.79,VWS V14.01,2013-07-30 21:26:00,
2013-07-30 16:31:00,70.3,64.9,30.01,SE,140,0.0,8.0,83,0.00,,SCT005,0.79,VWS V14.01,2013-07-30 21:31:00,
2013-07-30 16:36:00,70.4,65.0,30.01,SE,128,0.0,6.0,83,0.00,,SCT005,0.79,VWS V14.01,2013-07-30 21:36:00,
2013-07-30 16:41:00,70.5,65.1,30.01,SE,132,0.0,6.0,83,0.00,,SCT005,0.79,VWS V14.01,2013-07-30 21:41:00,
2013-07-30 16:46:00,70.5,65.1,30.01,SSW,207,2.0,5.0,83,0.00,,SCT005,0.79,VWS V14.01,2013-07-30 21:46:00,
2013-07-30 16:51:00,70.6,65.2,30.01,South,171,1.0,5.0,83,0.00,,SCT005,0.79,VWS V14.01,2013-07-30 21:51:00,
2013-07-30 16:56:00,70.6,65.2,30.01,SE,144,0.0,5.0,83,0.00,,SCT005,0.79,VWS V14.01,2013-07-30 21:56:00,
2013-07-30 17:01:00,70.6,65.2,30.01,SE,141,0.0,5.0,83,0.00,,SCT005,0.79,VWS V14.01,2013-07-30 22:01:00,
2013-07-30 17:06:00,70.6,65.2,30.00,ESE,116,0.0,6.0,83,0.00,,SCT005,0.79,VWS V14.01,2013-07-30 22:06:00,
2013-07-30 17:11:00,70.7,65.3,30.01,SSE,164,1.0,6.0,83,0.00,,SCT005,0.79,VWS V14.01,2013-07-30 22:11:00,
2013-07-30 17:16:00,70.8,65.4,30.00,SE,127,1.0,8.0,83,0.00,,SCT005,0.79,VWS V14.01,2013-07-30 22:16:00,
2013-07-30 17:21:00,70.9,65.5,30.00,South,176,0.0,8.0,83,0.00,,SCT005,0.79,VWS V14.01,2013-07-30 22:21:00,
2013-07-30 17:26:00,71.0,65.6,30.00,South,173,6.0,6.0,83,0.00,,SCT005,0.79,VWS V14.01,2013-07-30 22:26:00,
2013-07-30 17:31:00,71.0,65.6,30.00,SE,142,0.0,7.0,83,0.00,,SCT005,0.79,VWS V14.01,2013-07-30 22:31:00,
2013-07-30 17:36:00,71.1,65.7,30.00,SE,132,2.0,2.0,83,0.00,,SCT005,0.79,VWS V14.01,2013-07-30 22:36:00,
2013-07-30 17:41:00,71.2,65.8,30.00,SW,216,4.0,8.0,83,0.00,,CLR,0.79,VWS V14.01,2013-07-30 22:41:00,
2013-07-30 17:46:00,71.2,65.8,30.00,South,185,0.0,6.0,83,0.00,,CLR,0.79,VWS V14.01,2013-07-30 22:46:00,
2013-07-30 17:51:00,71.2,65.8,30.00,South,186,0.0,6.0,83,0.00,,CLR,0.79,VWS V14.01,2013-07-30 22:51:00,
2013-07-30 17:56:00,71.1,65.7,30.00,South,175,4.0,7.0,83,0.00,,CLR,0.79,VWS V14.01,2013-07-30 22:56:00,
2013-07-30 18:01:00,71.1,65.7,30.00,SSE,164,1.0,7.0,83,0.00,,CLR,0.79,VWS V14.01,2013-07-30 23:01:00,
2013-07-30 18:11:00,71.1,65.7,30.00,South,179,0.0,8.0,83,0.00,,CLR,0.79,VWS V14.01,2013-07-30 23:11:00,
2013-07-30 18:16:00,71.1,65.7,30.00,South,174,0.0,5.0,83,0.00,,CLR,0.79,VWS V14.01,2013-07-30 23:16:00,
2013-07-30 18:21:00,71.1,65.7,30.00,SSE,147,0.0,5.0,83,0.00,,CLR,0.79,VWS V14.01,2013-07-30 23:21:00,
2013-07-30 18:26:00,71.1,65.7,30.00,SSE,157,0.0,6.0,83,0.00,,CLR,0.79,VWS V14.01,2013-07-30 23:26:00,
2013-07-30 18:31:00,71.1,65.7,30.00,WSW,241,0.0,6.0,83,0.00,,CLR,0.79,VWS V14.01,2013-07-30 23:31:00,
2013-07-30 18:36:00,71.2,65.8,30.00,SE,132,6.0,7.0,83,0.00,,CLR,0.79,VWS V14.01,2013-07-30 23:36:00,
2013-07-30 18:41:00,71.2,65.8,30.00,ESE,121,0.0,7.0,83,0.00,,CLR,0.79,VWS V14.01,2013-07-30 23:41:00,
2013-07-30 18:46:00,71.1,65.7,30.00,ESE,119,0.0,4.0,83,0.00,,CLR,0.79,VWS V14.01,2013-07-30 23:46:00,
2013-07-30 18:51:00,71.2,65.8,30.00,SSW,206,3.0,5.0,83,0.00,,,0.79,VWS V14.01,2013-07-30 23:51:00,
2013-07-30 18:56:00,71.1,65.7,30.00,ESE,123,0.0,4.0,83,0.00,,,0.79,VWS V14.01,2013-07-30 23:56:00,
2013-07-30 19:01:00,71.1,65.7,30.00,SSE,149,0.0,5.0,83,0.00,,,0.79,VWS V14.01,2013-07-31 00:01:00,
2013-07-30 19:06:00,71.1,65.7,30.00,SSE,157,0.0,2.0,83,0.00,,,0.79,VWS V14.01,2013-07-31 00:06:00,
2013-07-30 19:11:00,71.0,65.6,30.00,ESE,117,0.0,4.0,83,0.00,,,0.79,VWS V14.01,2013-07-31 00:11:00,
2013-07-30 19:16:00,70.9,65.5,30.00,ESE,118,0.0,1.0,83,0.00,,,0.79,VWS V14.01,2013-07-31 00:16:00,
2013-07-30 19:27:00,70.8,65.4,29.99,SSW,194,0.0,4.0,83,0.00,,,0.79,VWS V14.01,2013-07-31 00:27:00,
2013-07-30 19:32:00,70.7,65.3,29.99,SSW,194,0.0,0.0,83,0.00,,,0.79,VWS V14.01,2013-07-31 00:32:00,
2013-07-30 19:37:00,70.7,65.3,29.99,SE,127,4.0,4.0,83,0.00,,,0.79,VWS V14.01,2013-07-31 00:37:00,
2013-07-30 19:42:00,70.6,65.2,29.99,SSE,164,0.0,1.0,83,0.00,,,0.79,VWS V14.01,2013-07-31 00:42:00,
2013-07-30 19:47:00,70.5,65.1,29.99,SSE,152,2.0,2.0,83,0.00,,,0.79,VWS V14.01,2013-07-31 00:47:00,
2013-07-30 19:52:00,70.4,65.0,29.99,ESE,117,0.0,0.0,83,0.00,,,0.79,VWS V14.01,2013-07-31 00:52:00,
2013-07-30 19:57:00,70.4,65.0,29.99,ESE,117,0.0,0.0,83,0.00,,,0.79,VWS V14.01,2013-07-31 00:57:00,
2013-07-30 20:02:00,70.4,65.0,30.00,ESE,117,0.0,1.0,83,0.00,,,0.79,VWS V14.01,2013-07-31 01:02:00,
2013-07-30 20:07:00,70.4,65.0,30.00,ESE,117,0.0,1.0,83,0.01,,,0.80,VWS V14.01,2013-07-31 01:07:00,
2013-07-30 20:12:00,70.4,65.0,30.00,ESE,117,0.0,0.0,83,0.01,,,0.80,VWS V14.01,2013-07-31 01:12:00,
2013-07-30 20:17:00,70.3,64.9,30.00,ESE,117,0.0,1.0,83,0.01,,,0.80,VWS V14.01,2013-07-31 01:17:00,
2013-07-30 20:22:00,70.3,64.9,30.00,SE,138,1.0,1.0,83,0.01,,,0.80,VWS V14.01,2013-07-31 01:22:00,
2013-07-30 20:27:00,70.3,64.9,29.99,SE,139,0.0,5.0,83,0.01,,,0.80,VWS V14.01,2013-07-31 01:27:00,
2013-07-30 20:32:00,70.3,64.9,30.00,SE,139,0.0,0.0,83,0.01,,,0.80,VWS V14.01,2013-07-31 01:32:00,
2013-07-30 20:37:00,70.2,64.8,29.99,SE,139,0.0,2.0,83,0.01,,,0.80,VWS V14.01,2013-07-31 01:37:00,
2013-07-30 20:42:00,70.2,64.8,29.99,SE,139,0.0,0.0,83,0.01,,,0.80,VWS V14.01,2013-07-31 01:42:00,
2013-07-30 20:47:00,70.2,64.8,29.99,SE,139,0.0,1.0,83,0.01,,,0.80,VWS V14.01,2013-07-31 01:47:00,
2013-07-30 20:52:00,70.2,64.8,29.99,SE,140,0.0,1.0,83,0.01,,SCT004,0.80,VWS V14.01,2013-07-31 01:52:00,
2013-07-30 20:57:00,70.1,64.7,29.99,SE,138,0.0,2.0,83,0.01,,SCT004,0.80,VWS V14.01,2013-07-31 01:57:00,
2013-07-30 21:02:00,70.1,64.7,29.99,ESE,119,0.0,0.0,83,0.01,,SCT004,0.80,VWS V14.01,2013-07-31 02:02:00,
2013-07-30 21:07:00,70.1,64.7,29.99,ESE,119,0.0,2.0,83,0.01,,SCT004,0.80,VWS V14.01,2013-07-31 02:07:00,
2013-07-30 21:12:00,70.1,64.4,29.99,ESE,119,0.0,1.0,82,0.00,,SCT004,0.80,VWS V14.01,2013-07-31 02:12:00,
2013-07-30 21:17:00,70.1,64.4,29.99,ESE,119,0.0,1.0,82,0.00,,SCT004,0.80,VWS V14.01,2013-07-31 02:17:00,
2013-07-30 21:22:00,70.2,64.4,30.00,ESE,119,0.0,0.0,82,0.00,,SCT004,0.80,VWS V14.01,2013-07-31 02:22:00,
2013-07-30 21:27:00,70.2,64.4,30.00,ESE,119,0.0,0.0,82,0.00,,SCT004,0.80,VWS V14.01,2013-07-31 02:27:00,
2013-07-30 21:32:00,70.2,64.4,30.00,ESE,119,0.0,0.0,82,0.00,,SCT004,0.80,VWS V14.01,2013-07-31 02:32:00,
2013-07-30 21:37:00,70.2,64.4,30.00,ESE,120,1.0,4.0,82,0.00,,SCT004,0.80,VWS V14.01,2013-07-31 02:37:00,
2013-07-30 21:42:00,70.2,64.4,30.00,ESE,120,0.0,0.0,82,0.00,,SCT004,0.80,VWS V14.01,2013-07-31 02:42:00,
2013-07-30 21:47:00,70.2,64.4,30.00,ESE,120,0.0,5.0,82,0.00,,SCT004,0.80,VWS V14.01,2013-07-31 02:47:00,
2013-07-30 21:52:00,70.2,64.4,30.00,ESE,120,0.0,0.0,82,0.00,,BKN004,0.80,VWS V14.01,2013-07-31 02:52:00,
2013-07-30 21:57:00,70.2,64.4,30.00,ESE,120,0.0,0.0,82,0.00,,BKN004,0.80,VWS V14.01,2013-07-31 02:57:00,
2013-07-30 22:02:00,70.3,64.6,30.00,ESE,120,1.0,2.0,82,0.00,,BKN004,0.80,VWS V14.01,2013-07-31 03:02:00,
2013-07-30 22:07:00,70.3,64.6,30.00,ESE,120,0.0,2.0,82,0.00,,BKN004,0.80,VWS V14.01,2013-07-31 03:07:00,
2013-07-30 22:12:00,70.3,64.6,30.00,ESE,120,0.0,0.0,82,0.00,,BKN004,0.80,VWS V14.01,2013-07-31 03:12:00,
2013-07-30 22:17:00,70.3,64.6,30.00,ESE,120,0.0,1.0,82,0.00,,BKN004,0.80,VWS V14.01,2013-07-31 03:17:00,
2013-07-30 22:22:00,70.3,64.6,30.00,ESE,120,0.0,0.0,82,0.00,,BKN004,0.80,VWS V14.01,2013-07-31 03:22:00,
2013-07-30 22:27:00,70.3,64.6,30.00,ESE,120,0.0,0.0,82,0.00,,BKN004,0.80,VWS V14.01,2013-07-31 03:27:00,
2013-07-30 22:32:00,70.3,64.6,30.00,ESE,120,0.0,0.0,82,0.00,,BKN004,0.80,VWS V14.01,2013-07-31 03:32:00,
2013-07-30 22:37:00,70.3,64.6,30.00,ESE,120,0.0,0.0,82,0.00,,BKN004,0.80,VWS V14.01,2013-07-31 03:37:00,
2013-07-30 22:42:00,70.4,64.7,30.00,ESE,120,0.0,0.0,82,0.00,,BKN004,0.80,VWS V14.01,2013-07-31 03:42:00,
2013-07-30 22:47:00,70.4,64.7,30.00,ESE,120,0.0,1.0,82,0.00,,BKN004,0.80,VWS V14.01,2013-07-31 03:47:00,
2013-07-30 22:52:00,70.4,64.7,30.00,ESE,120,0.0,0.0,82,0.00,,,0.80,VWS V14.01,2013-07-31 03:52:00,
2013-07-30 23:02:00,70.5,64.8,30.00,ESE,120,0.0,1.0,82,0.00,,,0.80,VWS V14.01,2013-07-31 04:02:00,
2013-07-30 23:07:00,70.5,64.8,30.00,ESE,120,0.0,1.0,82,0.00,,,0.80,VWS V14.01,2013-07-31 04:07:00,
2013-07-30 23:12:00,70.5,64.8,30.00,ESE,120,0.0,0.0,82,0.00,,,0.80,VWS V14.01,2013-07-31 04:12:00,
2013-07-30 23:17:00,70.5,64.8,30.00,ESE,120,1.0,2.0,82,0.00,,,0.80,VWS V14.01,2013-07-31 04:17:00,
2013-07-30 23:21:00,70.5,64.8,30.00,ESE,120,0.0,2.0,82,0.00,,,0.80,VWS V14.01,2013-07-31 04:21:00,
2013-07-30 23:27:00,70.5,64.8,30.00,ESE,120,0.0,1.0,82,0.00,,,0.80,VWS V14.01,2013-07-31 04:27:00,
2013-07-30 23:32:00,70.5,64.8,30.00,ESE,120,0.0,0.0,82,0.00,,,0.80,VWS V14.01,2013-07-31 04:32:00,
2013-07-30 23:37:00,70.6,64.8,30.00,ESE,120,0.0,1.0,82,0.00,,,0.80,VWS V14.01,2013-07-31 04:37:00,
2013-07-30 23:41:00,70.6,64.8,30.00,ESE,120,0.0,1.0,82,0.00,,BKN004,0.80,VWS V14.01,2013-07-31 04:41:00,
2013-07-30 23:47:00,70.6,64.8,30.00,ESE,120,0.0,0.0,82,0.00,,BKN004,0.80,VWS V14.01,2013-07-31 04:47:00,
2013-07-30 23:52:00,70.6,64.8,30.00,ESE,120,0.0,0.0,82,0.00,,,0.80,VWS V14.01,2013-07-31 04:52:00,
2013-07-30 23:57:00,70.6,64.8,30.00,ESE,120,0.0,0.0,82,0.00,,,0.80,VWS V14.01,2013-07-31 04:57:00,